timestamp,surface_pressure_avg,surface_temp_avg,battery_voltage,lat,long
2020-06-24 00:09:01+00:00,345.2596,11.88,13.29,47.84626,-54.09684
2020-06-24 00:19:01+00:00,349.6229,11.9,12.89,47.84626,-54.09684
2020-06-24 00:29:01+00:00,353.6445,11.9,12.89,47.84626,-54.09684
2020-06-24 00:39:01+00:00,355.9146,11.9,12.89,47.84626,-54.09684
2020-06-24 00:49:01+00:00,362.3396,11.9,12.89,47.84626,-54.09684
2020-06-24 00:59:01+00:00,367.2412,11.9,12.89,47.84626,-54.09684
2020-06-24 01:09:01+00:00,366.6497,11.9,12.89,47.84626,-54.09684
2020-06-24 01:19:01+00:00,369.1179,11.89,12.73,47.84626,-54.09684
2020-06-24 01:29:01+00:00,371.3746,11.8,12.73,47.84626,-54.09684
2020-06-24 01:39:01+00:00,371.0795,11.46,12.73,47.84626,-54.09684
2020-06-24 01:49:01+00:00,371.4197,11.44,12.73,47.84626,-54.09684
2020-06-24 01:59:01+00:00,372.228,11.6,12.73,47.84626,-54.09684
2020-06-24 02:09:01+00:00,372.0114,11.5,12.73,47.84626,-54.09684
2020-06-24 02:19:01+00:00,366.2729,11.44,12.73,47.84626,-54.09684
2020-06-24 02:29:01+00:00,364.3079,11.67,12.73,47.84626,-54.09684
2020-06-24 02:39:01+00:00,363.8962,11.7,12.73,47.84626,-54.09684
2020-06-24 02:49:01+00:00,360.4612,11.75,12.73,47.84626,-54.09684
2020-06-24 02:59:01+00:00,356.1512,11.79,12.73,47.84626,-54.09684
2020-06-24 03:09:01+00:00,352.5112,11.8,12.73,47.84626,-54.09684
2020-06-24 03:19:01+00:00,345.81800000000015,11.8,12.73,47.84626,-54.09684
2020-06-24 03:29:01+00:00,338.598,11.88,12.73,47.84626,-54.09684
2020-06-24 03:39:01+00:00,332.8896,11.9,12.73,47.84626,-54.09684
2020-06-24 03:49:01+00:00,325.9314,11.9,12.73,47.84626,-54.09684
2020-06-24 03:59:01+00:00,315.5814,11.9,12.73,47.84626,-54.09684
2020-06-24 04:09:01+00:00,306.9497,11.9,12.73,47.84626,-54.09684
2020-06-24 04:19:01+00:00,299.6913,11.9,12.73,47.84626,-54.09684
2020-06-24 04:29:01+00:00,291.4913,11.92,12.73,47.84626,-54.09684
2020-06-24 04:39:01+00:00,282.1447,11.96,12.73,47.84626,-54.09684
2020-06-24 04:49:01+00:00,273.8097,11.98,12.73,47.84626,-54.09684
2020-06-24 04:59:01+00:00,266.1164,12.0,12.73,47.84626,-54.09684
2020-06-24 05:09:01+00:00,258.0347,12.0,12.73,47.84626,-54.09684
2020-06-24 05:19:01+00:00,246.6031,12.0,12.65,47.84626,-54.09684
2020-06-24 05:29:01+00:00,238.9781,12.0,12.65,47.84626,-54.09684
2020-06-24 05:39:01+00:00,232.9081,12.0,12.65,47.84626,-54.09684
2020-06-24 05:49:01+00:00,223.6064,12.0,12.65,47.84626,-54.09684
2020-06-24 05:59:01+00:00,214.0147,12.0,12.65,47.84626,-54.09684
2020-06-24 06:09:01+00:00,209.8297,12.0,12.65,47.84626,-54.09684
2020-06-24 06:19:01+00:00,205.6082,12.0,12.65,47.84626,-54.09684
2020-06-24 06:29:01+00:00,196.7748,12.0,12.65,47.84626,-54.09684
2020-06-24 06:39:01+00:00,189.1248,12.04,12.65,47.84626,-54.09684
2020-06-24 06:49:01+00:00,187.4648,12.04,12.65,47.84626,-54.09684
2020-06-24 06:59:01+00:00,185.4881,12.02,12.65,47.84626,-54.09684
2020-06-24 07:09:01+00:00,182.5615,12.01,12.65,47.84626,-54.09684
2020-06-24 07:19:01+00:00,182.1898,12.02,12.65,47.84626,-54.09684
2020-06-24 07:29:01+00:00,183.1014,12.03,12.65,47.84626,-54.09684
2020-06-24 07:39:01+00:00,184.0132,12.05,12.65,47.84626,-54.09684
2020-06-24 07:49:01+00:00,183.0698,12.07,12.65,47.84626,-54.09684
2020-06-24 07:59:01+00:00,184.9682,12.09,12.65,47.84626,-54.09684
2020-06-24 08:09:01+00:00,189.6064,12.09,12.65,47.84626,-54.09684
2020-06-24 08:19:01+00:00,192.9282,12.09,12.65,47.84626,-54.09684
2020-06-24 08:29:01+00:00,194.7432,12.09,12.65,47.84626,-54.09684
2020-06-24 08:39:01+00:00,201.1398,12.1,12.65,47.84626,-54.09684
2020-06-24 08:49:01+00:00,206.7614,12.1,12.65,47.84626,-54.09684
2020-06-24 08:59:01+00:00,207.7731,12.1,12.65,47.84626,-54.09684
2020-06-24 09:09:01+00:00,210.0448,12.1,12.65,47.84626,-54.09684
2020-06-24 09:19:01+00:00,215.5664,12.1,12.65,47.84626,-54.09684
2020-06-24 09:29:01+00:00,219.0598,12.1,12.65,47.84626,-54.09684
2020-06-24 09:39:01+00:00,221.4831,12.1,12.65,47.84626,-54.09684
2020-06-24 09:49:01+00:00,225.7414,12.1,12.65,47.84626,-54.09684
2020-06-24 09:59:01+00:00,229.5214,12.1,12.65,47.84626,-54.09684
2020-06-24 10:09:01+00:00,229.9565,12.1,12.65,47.84626,-54.09684
2020-06-24 10:19:01+00:00,231.8698,12.1,12.73,47.84626,-54.09684
2020-06-24 10:29:01+00:00,236.8931,12.1,12.73,47.84626,-54.09684
2020-06-24 10:39:01+00:00,243.5098,12.1,12.73,47.84626,-54.09684
2020-06-24 10:49:01+00:00,248.7664,12.1,12.73,47.84626,-54.09684
2020-06-24 10:59:01+00:00,254.3965,12.1,12.73,47.84626,-54.09684
2020-06-24 11:09:01+00:00,262.3098,12.1,12.73,47.84626,-54.09684
2020-06-24 11:19:01+00:00,270.2214,12.1,13.21,47.84626,-54.09684
2020-06-24 11:29:01+00:00,275.5314,12.1,13.21,47.84626,-54.09684
2020-06-24 11:39:01+00:00,281.9297,12.1,13.21,47.84626,-54.09684
2020-06-24 11:49:01+00:00,290.183,12.1,13.21,47.84626,-54.09684
2020-06-24 11:59:01+00:00,298.4846,12.1,13.21,47.84626,-54.09684
2020-06-24 12:09:01+00:00,301.6896,12.12,13.21,47.84626,-54.09684
2020-06-24 12:19:01+00:00,306.388,12.16,13.6,47.84626,-54.09684
2020-06-24 12:29:01+00:00,309.2913,12.18,13.6,47.84626,-54.09684
2020-06-24 12:39:01+00:00,313.8431,12.19,13.6,47.84626,-54.09684
2020-06-24 12:49:01+00:00,317.3696,12.2,13.6,47.84626,-54.09684
2020-06-24 12:59:01+00:00,321.9014,12.2,13.6,47.84626,-54.09684
2020-06-24 13:09:01+00:00,322.9847,12.2,13.6,47.84626,-54.09684
2020-06-24 13:19:01+00:00,322.5413,12.2,14.24,47.84626,-54.09684
2020-06-24 13:29:01+00:00,323.9097,12.21,14.24,47.84626,-54.09684
2020-06-24 13:39:01+00:00,325.3563,12.25,14.24,47.84626,-54.09684
2020-06-24 13:49:01+00:00,327.7996,12.28,14.24,47.84626,-54.09684
2020-06-24 13:59:01+00:00,329.213,12.29,14.24,47.84626,-54.09684
2020-06-24 14:09:01+00:00,329.2696,12.3,14.24,47.84626,-54.09684
2020-06-24 14:19:01+00:00,329.2529,12.3,14.32,47.84626,-54.09684
2020-06-24 14:29:01+00:00,329.7863,12.3,14.32,47.84626,-54.09684
2020-06-24 14:39:01+00:00,330.6163,12.3,14.32,47.84626,-54.09684
2020-06-24 14:49:01+00:00,327.5413,12.3,14.32,47.84626,-54.09684
2020-06-24 14:59:01+00:00,323.6129,12.35,14.32,47.84626,-54.09684
2020-06-24 15:09:01+00:00,324.2679,12.37,14.32,47.84626,-54.09684
2020-06-24 15:19:01+00:00,323.4847,12.35,14.32,47.84626,-54.09684
2020-06-24 15:29:01+00:00,318.7847,12.39,14.32,47.84626,-54.09684
2020-06-24 15:39:01+00:00,313.138,12.48,14.32,47.84626,-54.09684
2020-06-24 15:49:01+00:00,309.7563,12.4,14.32,47.84626,-54.09684
2020-06-24 15:59:01+00:00,304.2313,12.37,14.32,47.84626,-54.09684
2020-06-24 16:09:01+00:00,295.528,12.4,14.32,47.84626,-54.09684
2020-06-24 16:19:01+00:00,288.9714,12.4,14.24,47.84626,-54.09684
2020-06-24 16:29:01+00:00,282.4964,12.4,14.24,47.84626,-54.09684
2020-06-24 16:39:01+00:00,270.7897,12.4,14.24,47.84626,-54.09684
2020-06-24 16:49:01+00:00,260.6948,12.4,14.24,47.84626,-54.09684
2020-06-24 16:59:01+00:00,254.5564,12.4,14.24,47.84626,-54.09684
2020-06-24 17:09:01+00:00,246.1331,12.4,14.24,47.84626,-54.09684
2020-06-24 17:19:01+00:00,233.9814,12.42,14.08,47.84626,-54.09684
2020-06-24 17:29:01+00:00,227.7332,12.5,14.08,47.84626,-54.09684
2020-06-24 17:39:01+00:00,223.4131,12.5,14.08,47.84626,-54.09684
2020-06-24 17:49:01+00:00,215.2681,12.5,14.08,47.84626,-54.09684
2020-06-24 17:59:01+00:00,207.6781,12.58,14.08,47.84626,-54.09684
2020-06-24 18:09:01+00:00,205.4265,12.6,14.08,47.84626,-54.09684
2020-06-24 18:19:01+00:00,203.6115,12.6,14.0,47.84626,-54.09684
2020-06-24 18:29:01+00:00,196.7515,12.67,14.0,47.84626,-54.09684
2020-06-24 18:39:01+00:00,191.4615,12.72,14.0,47.84626,-54.09684
2020-06-24 18:49:01+00:00,191.4548,12.77,14.0,47.84626,-54.09684
2020-06-24 18:59:01+00:00,189.2948,12.8,14.0,47.84626,-54.09684
2020-06-24 19:09:01+00:00,184.8065,12.8,14.0,47.84626,-54.09684
2020-06-24 19:19:01+00:00,185.6765,12.88,13.92,47.84626,-54.09684
2020-06-24 19:29:01+00:00,190.6898,12.85,13.92,47.84626,-54.09684
2020-06-24 19:39:01+00:00,190.7264,12.8,13.92,47.84626,-54.09684
2020-06-24 19:49:01+00:00,189.5298,12.8,13.92,47.84626,-54.09684
2020-06-24 19:59:01+00:00,191.0565,12.7,13.92,47.84626,-54.09684
2020-06-24 20:09:01+00:00,193.1848,12.7,13.92,47.84626,-54.09684
2020-06-24 20:19:01+00:00,194.9598,12.7,13.76,47.84626,-54.09684
2020-06-24 20:29:01+00:00,196.1931,12.69,13.76,47.84626,-54.09684
2020-06-24 20:39:01+00:00,199.9681,12.6,13.76,47.84626,-54.09684
2020-06-24 20:49:01+00:00,204.2932,12.5,13.76,47.84626,-54.09684
2020-06-24 20:59:01+00:00,206.5964,12.5,13.76,47.84626,-54.09684
2020-06-24 21:09:01+00:00,208.7431,12.4,13.76,47.84626,-54.09684
2020-06-24 21:19:01+00:00,212.6548,12.4,13.53,47.84626,-54.09684
2020-06-24 21:29:01+00:00,218.0447,12.3,13.53,47.84626,-54.09684
2020-06-24 21:39:01+00:00,223.0981,12.25,13.53,47.84626,-54.09684
2020-06-24 21:49:01+00:00,227.9931,12.25,13.53,47.84626,-54.09684
2020-06-24 21:59:01+00:00,233.5731,12.3,13.53,47.84626,-54.09684
2020-06-24 22:09:01+00:00,238.6698,12.36,13.53,47.84626,-54.09684
2020-06-24 22:19:01+00:00,243.4097,12.4,13.29,47.84626,-54.09684
2020-06-24 22:29:01+00:00,246.3214,12.5,13.29,47.84626,-54.09684
2020-06-24 22:39:01+00:00,249.9698,12.55,13.29,47.84626,-54.09684
2020-06-24 22:49:01+00:00,253.1497,12.6,13.29,47.84626,-54.09684
2020-06-24 22:59:01+00:00,258.4514,12.62,13.29,47.84626,-54.09684
2020-06-24 23:09:01+00:00,263.5198,12.69,13.29,47.84626,-54.09684
2020-06-24 23:19:01+00:00,268.5698,12.7,12.97,47.84626,-54.09684
2020-06-24 23:29:01+00:00,270.2514,12.7,12.97,47.84626,-54.09684
2020-06-24 23:39:01+00:00,277.2347,12.77,12.97,47.84626,-54.09684
2020-06-24 23:49:01+00:00,286.5214,12.8,12.97,47.84626,-54.09684
2020-06-24 23:59:01+00:00,296.7214,12.8,12.97,47.84626,-54.09684
